OEKUH LESU-LEDA

Flight info

Callsign OEKUH
Flight time N/A
Altitude 8500
Route VFR
Aircraft DA40/L-SY/S

Departure

Time 2026-04-30 15:00
Airport Pirineus - la Seu d'Urgel Airport (LESU)

Arrival

Time N/A
Airport Lleida-Alguaire Airport (LEDA)
Time Latitude Longitude Altitude Speed Heading
2026-04-30 14:35 42.33794 1.40491 2631 ft 0 kts 31°
2026-04-30 14:52 42.33794 1.40492 2631 ft 0 kts 29°
2026-04-30 14:52 42.33799 1.40492 2631 ft 1 kts 330°
2026-04-30 14:53 42.33796 1.40482 2631 ft 0 kts 193°
2026-04-30 14:53 42.33787 1.40481 2631 ft 4 kts 178°
2026-04-30 14:54 42.33753 1.40530 2631 ft 1 kts 115°
2026-04-30 14:54 42.33732 1.40593 2632 ft 8 kts 120°
2026-04-30 14:55 42.33713 1.40616 2633 ft 0 kts 345°
2026-04-30 14:55 42.33723 1.40621 2633 ft 6 kts 58°
2026-04-30 14:55 42.33767 1.40713 2633 ft 5 kts 46°
2026-04-30 14:56 42.33826 1.40820 2631 ft 11 kts 43°
2026-04-30 14:56 42.33914 1.40914 2632 ft 8 kts 29°
2026-04-30 14:57 42.33953 1.40945 2632 ft 8 kts 37°
2026-04-30 14:57 42.34070 1.41031 2632 ft 12 kts 35°
2026-04-30 14:58 42.34169 1.41116 2632 ft 11 kts 22°
2026-04-30 14:58 42.34234 1.41166 2632 ft 12 kts 38°
2026-04-30 14:58 42.34230 1.41161 2632 ft 34 kts 210°
2026-04-30 14:59 42.33568 1.40650 2895 ft 56 kts 208°
2026-04-30 15:00 42.32343 1.39664 3491 ft 82 kts 215°
2026-04-30 15:00 42.31365 1.38912 3915 ft 86 kts 214°
2026-04-30 15:01 42.30431 1.38289 4321 ft 76 kts 194°
2026-04-30 15:01 42.29885 1.38020 4422 ft 85 kts 201°
2026-04-30 15:01 42.28811 1.37642 4776 ft 80 kts 189°
2026-04-30 15:02 42.28264 1.37491 4953 ft 83 kts 195°
2026-04-30 15:02 42.27695 1.37289 5172 ft 79 kts 192°
2026-04-30 15:03 42.26079 1.36464 5561 ft 88 kts 220°
2026-04-30 15:03 42.25059 1.35682 5843 ft 87 kts 195°
2026-04-30 15:04 42.23910 1.35174 6268 ft 85 kts 195°
2026-04-30 15:04 42.22188 1.34608 6733 ft 93 kts 193°
2026-04-30 15:05 42.20360 1.33856 7229 ft 90 kts 199°
2026-04-30 15:06 42.19132 1.33335 7487 ft 100 kts 199°
2026-04-30 15:06 42.17652 1.32749 7464 ft 119 kts 198°
2026-04-30 15:07 42.15994 1.32156 7463 ft 128 kts 195°
2026-04-30 15:07 42.14248 1.31624 7450 ft 128 kts 194°
2026-04-30 15:08 42.12473 1.31075 7453 ft 132 kts 195°
2026-04-30 15:08 42.09939 1.30305 7445 ft 131 kts 195°
2026-04-30 15:09 42.08185 1.29788 7443 ft 129 kts 194°
2026-04-30 15:09 42.06438 1.29259 7431 ft 128 kts 195°
2026-04-30 15:10 42.04718 1.28632 7434 ft 127 kts 202°
2026-04-30 15:11 42.01510 1.26788 7435 ft 126 kts 206°
2026-04-30 15:11 41.99920 1.25742 7442 ft 127 kts 207°
2026-04-30 15:12 41.97595 1.23931 7437 ft 130 kts 216°
2026-04-30 15:13 41.96178 1.22488 7428 ft 126 kts 217°
2026-04-30 15:14 41.93471 1.19737 7437 ft 121 kts 217°
2026-04-30 15:14 41.91557 1.17582 7425 ft 120 kts 233°
2026-04-30 15:16 41.89402 1.13033 7433 ft 120 kts 237°
2026-04-30 15:17 41.87579 1.09306 7440 ft 119 kts 237°
2026-04-30 15:18 41.86429 1.04216 7441 ft 120 kts 270°
2026-04-30 15:19 41.86490 1.00897 7441 ft 119 kts 269°